Flight Track Log - Related Links

Times and Time Zones

All times are in EST time to prevent confusion due to time zone crossing. See the N343CW flight status page for this flight to view local times or setup timezone preferences in your user account.

Time Position Orientation Groundspeed Altitude Reporting Facility
EST Latitude Longitude Course Direction KTS MPH feet Rate Location/Type
12:00PM 40.9308 -85.1175 219° Southwest 146 168 4,000  Level Chicago Center
12:01PM 40.8961 -85.1353 201° Southwest 153 176 5,700 1,548 Climbing Chicago Center
12:02PM 40.8625 -85.1761 223° Southwest 159 183 7,200 1,440 Climbing Chicago Center
12:03PM 40.8281 -85.2144 220° Southwest 162 186 8,700 1,296 Climbing Chicago Center
12:04PM 40.7961 -85.2628 229° Southwest 170 196 9,900 629 Climbing Chicago Center
12:05PM 40.7828 -85.3494 259° West 199 229 10,000 1,016 Climbing Chicago Center
12:06PM 40.9785 -85.1952 219° Southwest  Level Estimated
12:06PM 40.7708 -85.4253 258° West 210 242 12,000  Level Chicago Center
12:07PM 40.8036 -85.4489 331° Northwest 166 191 13,300 1,306 Climbing Chicago Center
12:08PM 40.8461 -85.4633 346° North 157 181 14,700 1,258 Climbing Chicago Center
12:09PM 40.8861 -85.4839 339° North 154 177 15,900 1,113 Climbing Chicago Center
12:10PM 40.9269 -85.5031 340° North 156 180 17,000 1,016 Climbing Chicago Center
12:11PM 40.9781 -85.5281 340° North 161 185 18,000 871 Climbing Chicago Center
12:12PM 41.0094 -85.5606 322° Northwest 165 190 18,800 1,065 Climbing Chicago Center
12:13PM 41.0053 -85.6233 265° West 171 197 20,200 1,210 Climbing Chicago Center
12:14PM 40.9986 -85.6756 260° West 149 171 21,300 960 Climbing Chicago Center
12:15PM 40.9906 -85.7272 258° West 145 167 22,200 816 Climbing Chicago Center
12:16PM 40.9842 -85.7803 261° West 146 168 23,000 774 Climbing Chicago Center
12:17PM 40.9758 -85.8436 260° West 146 168 23,800 774 Climbing Chicago Center
12:18PM 40.9697 -85.8986 262° West 150 173 24,600 677 Climbing Chicago Center
12:19PM 40.9628 -85.9536 261° West 152 175 25,200 581 Climbing Chicago Center
12:20PM 40.9569 -86.0089 262° West 152 175 25,800 581 Climbing Chicago Center
12:22PM 40.9444 -86.1225 262° West 156 180 27,000 581 Climbing Chicago Center
12:23PM 40.9397 -86.1908 265° West 157 181 27,600 290 Climbing Chicago Center
12:25PM 40.9356 -86.2522 265° West 164 189 27,600  Level Chicago Center
12:26PM 40.9314 -86.3200 265° West 183 211 27,600  Level Chicago Center
12:27PM 40.9269 -86.3917 265° West 192 221 27,600  Level Chicago Center
12:28PM 40.9233 -86.4639 266° West 197 227 27,600  Level Chicago Center
12:29PM 40.9214 -86.5367 268° West 198 228 27,600  Level Chicago Center
12:30PM 40.8856 -86.5889 228° Southwest 231 266 27,600 -581 Level Chicago Center
12:31PM 40.8242 -86.4886 129° Southeast 320 368 26,400 -1,306 Descending Chicago Center
12:32PM 40.7961 -86.3694 107° East 340 391 24,900 -1,452 Descending Chicago Center
12:33PM 40.7831 -86.2450 98° East 346 398 23,400 -1,355 Descending Chicago Center
12:34PM 40.8164 -86.1397 67° East 316 364 22,100 -677 Descending Chicago Center
12:35PM 40.8514 -86.0456 64° Northeast 295 339 22,000 -871 Descending Chicago Center
12:36PM 40.8844 -85.9308 69° East 290 334 20,300 -1,935 Descending Chicago Center
12:37PM 40.8894 -85.8164 87° East 313 360 18,000 -2,112 Descending Chicago Center
12:38PM 40.9058 -85.7072 79° East 310 357 15,900 -2,160 Descending Chicago Center
12:39PM 40.8933 -85.6050 99° East 305 351 13,500 -2,323 Descending Chicago Center
12:40PM 40.8397 -85.5231 131° Southeast 299 344 11,100 -2,548 Descending Chicago Center
12:42PM 40.7019 -85.4447 157° South 254 292 5,600 -2,387 Descending Chicago Center
12:43PM 40.7414 -85.3919 45° Northeast 228 262 3,700 -1,597 Descending Chicago Center
12:44PM 40.7922 -85.3692 19° North 208 239 2,300 -629 Descending Chicago Center
12:45PM 40.8300 -85.3592 11° North 167 192 2,400 48 Climbing Chicago Center
12:46PM 40.8631 -85.3417 22° Northeast 139 160 2,400  Level Chicago Center
12:47PM 40.8947 -85.2992 45° Northeast 132 152 2,400 -145 Level Chicago Center
12:48PM 40.9186 -85.2669 46° Northeast 129 148 2,100 -192 Descending Chicago Center
12:49PM 40.9408 -85.2358 47° Northeast 127 146 2,000 -95 Descending Chicago Center
12:51PM 40.9667 -85.1833 90° East  Level FlightAware Approximate

Login

Don't have an account? Register now (free) for customized features, flight alerts, and more!